Aeroporto :
LOGIN :

Iscrizione | Disclaimer

   EN    FR    IT 

 










Sommario :    VFR   VFR Marginale   IFR   IFR Intensivo   IFR Molto Intensivo
Visibilità : 
Base nubi : 
>= 8 km
>= 3000ft
5 / 8 km
1000 / 3000 ft
1500m / 5 km
500 / 1000 ft
800 / 1500m
200 / 500 ft
< 800m
< 200 ft
Simboli :   Temporali  Nebbia  Neve Forte  Precipitazioni Forti  Vento > 20 kt
SIGMETs :   Varie  Temporali  Ghiacco  Turbolenza  Onda orograficha  Ceneri Vulcaniche







- Altitudine del aeroporto : 408 ft
- Codice IATA : FKB


EDSB - Karlsruhe Baden Baden

ULTIMO METAR :
  • 271320Z 33004KT 270V030 CAVOK 30/10 Q1017

METARs OBSOLETI :
  • 271250Z 29004KT 230V010 CAVOK 30/11 Q1017
  • 271220Z 27006KT 230V320 CAVOK 29/11 Q1018
  • 271150Z 31004KT 250V350 CAVOK 28/11 Q1018
  • 271120Z 32005KT 260V360 CAVOK 28/12 Q1018
  • 271050Z 32005KT 270V360 CAVOK 27/11 Q1018

TAF TAF EDSB
Valido dal 27 a 12 ore il 28 a 12 ore UTC


271100Z 2712/2812 01006KT CAVOK
BECMG 2718/2720 VRB02KT
Nessun NOTAM noto per questo aeroporto.



MetMap, La meteo Aeronautica in un colpo d'occhio ! - Copyright ORBIFLY Dicembre 2007 - Disclaimer

ORBIFLY MET'MAP TEAM :

Programmazione e sviluppo : Alexandra Zaïnal
Concezione e sviluppo : Baudouin d'Aumeries
Co-Programmazione e sviluppo : Marc-Olivier Méhu
Supporto tecnico e logistico : Manuel Goepfert
Aiuto per la traduzione : Arnaldo La Scala

Contatto : metmap@orbifly.com




FONTI E CREDITI :

   NOAA